Voltar ao catálogo

SL-12 DEB

AtivoMEO
NORAD 20044·DEBRIS·🇷🇺 Russia

Lançado May 31, 1989 de Baikonur Cosmodrome

Loading…

Próximas Passagens (próximas 24 horas)

TLE

EnvelhecendoSource: Space-Track

Época: Aug 29, 2026, 04:27 UTC

1 20044U 89039F   26241.18542560 -.00000015  00000-0  00000+0 0  9991
2 20044  64.8852 308.0084 0022669 212.7885 190.6375  2.13204897288214

Acompanhe SL-12 DEB em tempo real com AllMySat

Download on the App Store